Time,TemperatureF,DewpointF,PressureIn,WindDirection,WindDirectionDegrees,WindSpeedMPH,WindSpeedGustMPH,Humidity,HourlyPrecipIn,Conditions,Clouds,dailyrainin,SoftwareType,DateUTC
2013-08-16 00:02:00,57.0,55.0,30.14,North,0,0.0,-999.0,93,-99.99,,,-99.99,,2013-08-16 05:02:00,
2013-08-16 00:11:00,57.0,55.0,30.14,North,0,0.0,-999.0,93,-99.99,,,-99.99,,2013-08-16 05:11:00,
2013-08-16 00:21:00,57.0,54.0,30.15,North,0,0.0,-999.0,87,-99.99,,,-99.99,,2013-08-16 05:21:00,
2013-08-16 02:00:00,57.0,54.0,30.14,North,0,0.0,-999.0,87,-99.99,,,-99.99,,2013-08-16 07:00:00,
2013-08-16 02:11:00,57.0,54.0,30.14,North,0,0.0,-999.0,87,-99.99,,,-99.99,,2013-08-16 07:11:00,
2013-08-16 02:21:00,57.0,55.0,30.13,North,0,0.0,-999.0,93,-99.99,,,-99.99,,2013-08-16 07:21:00,
2013-08-16 02:52:00,57.0,55.0,30.14,North,0,0.0,-999.0,93,-99.99,,,-99.99,,2013-08-16 07:52:00,
2013-08-16 03:01:00,57.0,55.0,30.14,North,0,0.0,-999.0,93,-99.99,,,-99.99,,2013-08-16 08:01:00,
2013-08-16 03:11:00,57.0,55.0,30.14,North,0,0.0,-999.0,93,-99.99,,,-99.99,,2013-08-16 08:11:00,
2013-08-16 03:21:00,57.0,55.0,30.14,NE,50,3.0,-999.0,93,-99.99,,,-99.99,,2013-08-16 08:21:00,
2013-08-16 03:52:00,55.0,55.0,30.12,NE,50,6.0,-999.0,100,-99.99,,,-99.99,,2013-08-16 08:52:00,
2013-08-16 04:01:00,55.0,55.0,30.12,NE,50,6.0,-999.0,100,-99.99,,,-99.99,,2013-08-16 09:01:00,
2013-08-16 04:11:00,55.0,55.0,30.12,NE,50,6.0,-999.0,100,-99.99,,,-99.99,,2013-08-16 09:11:00,
2013-08-16 04:21:00,55.0,54.0,30.13,NNE,30,3.0,-999.0,93,-99.99,,,-99.99,,2013-08-16 09:21:00,
2013-08-16 04:53:00,54.0,54.0,30.14,North,0,0.0,-999.0,100,-99.99,,,-99.99,,2013-08-16 09:53:00,
2013-08-16 05:03:00,54.0,54.0,30.14,North,0,0.0,-999.0,100,-99.99,,,-99.99,,2013-08-16 10:03:00,
2013-08-16 05:13:00,54.0,54.0,30.14,North,0,0.0,-999.0,100,-99.99,,,-99.99,,2013-08-16 10:13:00,
2013-08-16 05:23:00,54.0,54.0,30.14,North,0,0.0,-999.0,100,-99.99,,,-99.99,,2013-08-16 10:23:00,
2013-08-16 05:53:00,54.0,54.0,30.15,North,0,0.0,-999.0,100,-99.99,,,-99.99,,2013-08-16 10:53:00,
2013-08-16 06:02:00,54.0,54.0,30.15,North,0,0.0,-999.0,100,-99.99,,,-99.99,,2013-08-16 11:02:00,
2013-08-16 06:12:00,54.0,54.0,30.15,North,0,0.0,-999.0,100,-99.99,,,-99.99,,2013-08-16 11:12:00,
2013-08-16 06:21:00,54.0,54.0,30.15,NE,40,3.0,-999.0,100,-99.99,,,-99.99,,2013-08-16 11:21:00,
2013-08-16 06:52:00,55.0,55.0,30.17,North,0,0.0,-999.0,100,-99.99,,,-99.99,,2013-08-16 11:52:00,
2013-08-16 07:02:00,55.0,55.0,30.17,North,0,0.0,-999.0,100,-99.99,,,-99.99,,2013-08-16 12:02:00,
2013-08-16 07:12:00,55.0,55.0,30.17,North,0,0.0,-999.0,100,-99.99,,,-99.99,,2013-08-16 12:12:00,
2013-08-16 07:21:00,55.0,55.0,30.17,North,0,0.0,-999.0,100,-99.99,,,-99.99,,2013-08-16 12:21:00,
2013-08-16 07:52:00,57.0,57.0,30.17,NE,50,3.0,-999.0,100,-99.99,,,-99.99,,2013-08-16 12:52:00,
2013-08-16 08:02:00,57.0,57.0,30.17,NE,50,3.0,-999.0,100,-99.99,,,-99.99,,2013-08-16 13:02:00,
2013-08-16 08:11:00,57.0,57.0,30.17,NE,50,3.0,-999.0,100,-99.99,,,-99.99,,2013-08-16 13:11:00,
2013-08-16 08:21:00,59.0,57.0,30.17,ENE,60,3.0,-999.0,93,-99.99,,,-99.99,,2013-08-16 13:21:00,
2013-08-16 08:53:00,61.0,57.0,30.18,ENE,60,3.0,-999.0,87,-99.99,,,-99.99,,2013-08-16 13:53:00,
2013-08-16 09:02:00,61.0,57.0,30.18,ENE,60,3.0,-999.0,87,-99.99,,,-99.99,,2013-08-16 14:02:00,
2013-08-16 09:11:00,61.0,57.0,30.18,ENE,60,3.0,-999.0,87,-99.99,,,-99.99,,2013-08-16 14:11:00,
2013-08-16 09:22:00,64.0,57.0,30.18,East,80,3.0,-999.0,77,-99.99,,,-99.99,,2013-08-16 14:22:00,
2013-08-16 09:52:00,66.0,57.0,30.19,ENE,70,5.0,-999.0,72,-99.99,,,-99.99,,2013-08-16 14:52:00,
2013-08-16 10:01:00,66.0,57.0,30.19,ENE,70,5.0,-999.0,72,-99.99,,,-99.99,,2013-08-16 15:01:00,
2013-08-16 10:12:00,66.0,57.0,30.19,ENE,70,5.0,-999.0,72,-99.99,,,-99.99,,2013-08-16 15:12:00,
2013-08-16 10:22:00,68.0,55.0,30.19,ENE,70,6.0,-999.0,64,-99.99,,,-99.99,,2013-08-16 15:22:00,
2013-08-16 10:56:00,70.0,55.0,30.19,East,80,8.0,-999.0,60,-99.99,,,-99.99,,2013-08-16 15:56:00,
2013-08-16 11:04:00,70.0,55.0,30.19,East,80,8.0,-999.0,60,-99.99,,,-99.99,,2013-08-16 16:04:00,
2013-08-16 11:13:00,70.0,55.0,30.19,East,80,8.0,-999.0,60,-99.99,,,-99.99,,2013-08-16 16:13:00,
2013-08-16 11:23:00,70.0,57.0,30.19,East,90,7.0,-999.0,64,-99.99,,,-99.99,,2013-08-16 16:23:00,
2013-08-16 11:57:00,72.0,57.0,30.19,East,80,7.0,-999.0,60,-99.99,,,-99.99,,2013-08-16 16:57:00,
2013-08-16 12:03:00,72.0,57.0,30.19,East,80,7.0,-999.0,60,-99.99,,,-99.99,,2013-08-16 17:03:00,
2013-08-16 12:12:00,72.0,57.0,30.19,East,80,7.0,-999.0,60,-99.99,,,-99.99,,2013-08-16 17:12:00,
2013-08-16 12:28:00,72.0,55.0,30.19,NE,50,9.0,-999.0,56,-99.99,,,-99.99,,2013-08-16 17:28:00,
2013-08-16 13:00:00,73.0,55.0,30.18,ENE,60,6.0,-999.0,53,-99.99,,,-99.99,,2013-08-16 18:00:00,
2013-08-16 13:06:00,73.0,55.0,30.18,ENE,60,6.0,-999.0,53,-99.99,,,-99.99,,2013-08-16 18:06:00,
2013-08-16 13:15:00,73.0,55.0,30.18,ENE,60,6.0,-999.0,53,-99.99,,,-99.99,,2013-08-16 18:15:00,
2013-08-16 13:28:00,73.0,55.0,30.18,East,90,12.0,-999.0,53,-99.99,,,-99.99,,2013-08-16 18:28:00,
2013-08-16 13:50:00,-999.0,-99.9,30.17,ENE,70,12.0,-999.0,53,-99.99,,,-99.99,,2013-08-16 18:50:00,
2013-08-16 14:03:00,73.0,55.0,30.17,ENE,60,9.0,-999.0,53,-99.99,,,-99.99,,2013-08-16 19:03:00,
2013-08-16 14:14:00,73.0,55.0,30.17,ENE,60,9.0,-999.0,53,-99.99,,,-99.99,,2013-08-16 19:14:00,
2013-08-16 14:25:00,73.0,55.0,30.17,ENE,60,10.0,-999.0,53,-99.99,,,-99.99,,2013-08-16 19:25:00,
2013-08-16 14:55:00,75.0,54.0,30.17,East,90,8.0,-999.0,46,-99.99,,,-99.99,,2013-08-16 19:55:00,
2013-08-16 15:02:00,75.0,54.0,30.17,East,90,8.0,-999.0,46,-99.99,,,-99.99,,2013-08-16 20:02:00,
2013-08-16 15:11:00,75.0,54.0,30.17,East,90,8.0,-999.0,46,-99.99,,,-99.99,,2013-08-16 20:11:00,
2013-08-16 15:23:00,75.0,54.0,30.16,East,80,9.0,-999.0,46,-99.99,,,-99.99,,2013-08-16 20:23:00,
2013-08-16 15:38:00,75.0,54.0,30.16,East,80,9.0,-999.0,46,-99.99,,,-99.99,,2013-08-16 20:38:00,
2013-08-16 15:44:00,75.0,54.0,30.16,East,80,9.0,-999.0,46,-99.99,,,-99.99,,2013-08-16 20:44:00,
2013-08-16 15:52:00,75.0,54.0,30.16,East,80,9.0,-999.0,46,-99.99,,,-99.99,,2013-08-16 20:52:00,
2013-08-16 16:01:00,75.0,54.0,30.16,East,80,9.0,-999.0,46,-99.99,,,-99.99,,2013-08-16 21:01:00,
2013-08-16 16:54:00,75.0,55.0,30.15,East,80,10.0,-999.0,50,-99.99,,,-99.99,,2013-08-16 21:54:00,
2013-08-16 17:07:00,75.0,55.0,30.15,East,80,10.0,-999.0,50,-99.99,,,-99.99,,2013-08-16 22:07:00,
2013-08-16 17:13:00,75.0,55.0,30.15,East,80,10.0,-999.0,50,-99.99,,,-99.99,,2013-08-16 22:13:00,
2013-08-16 17:24:00,72.0,55.0,30.15,ENE,70,5.0,-999.0,56,-99.99,,,-99.99,,2013-08-16 22:24:00,
2013-08-16 17:52:00,73.0,54.0,30.16,East,80,7.0,-999.0,49,-99.99,,,-99.99,,2013-08-16 22:52:00,
2013-08-16 18:09:00,73.0,54.0,30.16,East,80,7.0,-999.0,49,-99.99,,,-99.99,,2013-08-16 23:09:00,
2013-08-16 18:23:00,73.0,54.0,30.17,East,90,5.0,-999.0,49,-99.99,,,-99.99,,2013-08-16 23:23:00,
2013-08-16 18:32:00,73.0,54.0,30.17,East,90,5.0,-999.0,49,-99.99,,,-99.99,,2013-08-16 23:32:00,
2013-08-16 18:52:00,72.0,55.0,30.17,East,100,6.0,-999.0,56,-99.99,,,-99.99,,2013-08-16 23:52:00,
2013-08-16 19:01:00,72.0,55.0,30.17,East,100,6.0,-999.0,56,-99.99,,,-99.99,,2013-08-17 00:01:00,
2013-08-16 19:11:00,72.0,55.0,30.17,East,100,6.0,-999.0,56,-99.99,,,-99.99,,2013-08-17 00:11:00,
2013-08-16 19:21:00,72.0,57.0,30.16,East,100,3.0,-999.0,60,-99.99,,,-99.99,,2013-08-17 00:21:00,
2013-08-16 19:52:00,68.0,57.0,30.17,North,0,0.0,-999.0,68,-99.99,,,-99.99,,2013-08-17 00:52:00,
2013-08-16 20:01:00,68.0,57.0,30.17,North,0,0.0,-999.0,68,-99.99,,,-99.99,,2013-08-17 01:01:00,
2013-08-16 20:11:00,68.0,57.0,30.17,North,0,0.0,-999.0,68,-99.99,,,-99.99,,2013-08-17 01:11:00,
2013-08-16 21:52:00,59.0,57.0,30.19,North,0,0.0,-999.0,93,-99.99,,,-99.99,,2013-08-17 02:52:00,
2013-08-16 22:01:00,59.0,57.0,30.19,North,0,0.0,-999.0,93,-99.99,,,-99.99,,2013-08-17 03:01:00,
2013-08-16 22:11:00,59.0,57.0,30.19,North,0,0.0,-999.0,93,-99.99,,,-99.99,,2013-08-17 03:11:00,
2013-08-16 22:21:00,59.0,55.0,30.19,North,0,0.0,-999.0,87,-99.99,,,-99.99,,2013-08-17 03:21:00,
2013-08-16 22:53:00,57.0,55.0,30.19,North,0,0.0,-999.0,93,-99.99,,,-99.99,,2013-08-17 03:53:00,
2013-08-16 23:03:00,57.0,55.0,30.19,North,0,0.0,-999.0,93,-99.99,,,-99.99,,2013-08-17 04:03:00,
2013-08-16 23:12:00,57.0,55.0,30.19,North,0,0.0,-999.0,93,-99.99,,,-99.99,,2013-08-17 04:12:00,
2013-08-16 23:23:00,57.0,55.0,30.19,North,0,0.0,-999.0,93,-99.99,,,-99.99,,2013-08-17 04:23:00,
2013-08-16 23:53:00,55.0,55.0,30.19,North,0,0.0,-999.0,100,-99.99,,,-99.99,,2013-08-17 04:53:00,